Weather History for CYYG - March, 2013

Change the Weather History Date:

Monday, March 4, 2013

  Actual Average Record
Temperature  
Mean Temperature 32 °F -  
Max Temperature 36 °F 34 °F 50 °F (1999)
Min Temperature 29 °F 20 °F -5 °F (2014)
Degree Days  
Heating Degree Days 32    
Moisture  
Dew Point 31 °F    
Average Humidity 92    
Maximum Humidity 100    
Minimum Humidity 80    
Precipitation  
Precipitation 0.24 in 0.12 in - ()
Sea Level Pressure  
Sea Level Pressure 29.50 in    
Wind  
Wind Speed 6 mph ()    
Max Wind Speed 14 mph    
Max Gust Speed 21 mph    
Visibility 8.2 miles    
Events Fog , Rain , Snow    
Averages and records for this station are not official NWS values.
T = Trace of Precipitation, MM = Missing Value Source: Averaged Metar Reports

Daily Weather History Graph

Daily Weather History Graph

Search for Another Location

Airport or City:

Trip Planner

Search our weather history database for the weather conditions in past years. The results will help you decide how hot, cold, wet, or windy it might be!

Date:

Astronomy

Mar. 04, 2013 Rise Set
Actual Time 6:45 AM AST 6:03 PM AST
Civil Twilight 6:15 AM AST 6:33 PM AST
Nautical Twilight 5:41 AM AST 7:08 PM AST
Astronomical Twilight 5:06 AM AST 7:43 PM AST
Moon 1:04 AM AST (3/4) 10:26 AM AST (3/4)
Length of Visible Light 12h 17m
Length of Day
11h 17m
Waning Gibbous, 53% of the Moon is Illuminated
Mar 4
Waning Gibbous
Mar 4
Last Quarter
Mar 11
New
Mar 19
First Quarter
Mar 27
Full

Hourly Weather History & Observations

Time (AST) Temp. Windchill Dew Point Humidity Pressure Visibility Wind Dir Wind Speed Gust Speed Precip Events Conditions
12:00 AM 28.4 °F 22.2 °F 26.6 °F 93% 29.40 in 2.5 mi SW 5.8 mph - N/A Snow Light Snow Showers
1:00 AM 30.2 °F 24.3 °F 24.8 °F 80% 29.40 in 2.0 mi SW 5.8 mph - N/A Snow Light Snow Showers
1:36 AM 30.2 °F - 26.6 °F 86% 29.40 in 0.8 mi SW 2.3 mph - N/A Snow Snow Showers
2:00 AM 30 °F - 26 °F 81% 29.40 in 1 mi Calm Calm - - Snow Light Snow Showers
2:00 AM 30.2 °F - 26.6 °F 86% 29.40 in 0.8 mi SW 2.3 mph - N/A Snow Snow Showers
3:00 AM 30.2 °F - 26.6 °F 86% 29.40 in 1.0 mi SW 2.3 mph - N/A Snow Light Snow Showers
4:00 AM 30.2 °F - 26.6 °F 86% 29.40 in 1.0 mi SW 2.3 mph - N/A Snow Light Snow Showers
5:00 AM 30.2 °F - 26.6 °F 86% 29.40 in 1.0 mi SW 2.3 mph - N/A Snow Light Snow
6:00 AM 32.0 °F - 28.4 °F 87% 29.41 in 0.8 mi SW 2.3 mph - N/A Snow Light Snow
6:20 AM 32.0 °F 26.4 °F 26.6 °F 80% 29.41 in 1.5 mi SW 5.8 mph - N/A Snow Light Snow
7:00 AM 32.0 °F 23.6 °F 28.4 °F 87% 29.42 in 0.8 mi SW 10.4 mph - N/A Snow Light Snow
7:16 AM 32.0 °F 24.2 °F 30.2 °F 93% 29.42 in 0.5 mi SW 9.2 mph - N/A Fog , Snow Light Snow
8:00 AM 33 °F - 32 °F 93% 29.43 in 1 mi Calm Calm - - Snow Light Snow
8:00 AM 32.0 °F 27.5 °F 32.0 °F 100% 29.43 in 0.8 mi East 4.6 mph - N/A Snow Light Snow
10:00 AM 32.0 °F 24.8 °F 32.0 °F 100% 29.46 in 1.5 mi East 8.1 mph - N/A Snow Light Snow
10:32 AM 33.8 °F 27.0 °F 32.0 °F 93% 29.47 in 2.0 mi East 8.1 mph - N/A Snow Light Snow
11:00 AM 33.8 °F 27.0 °F 33.8 °F 100% 29.47 in 2.0 mi East 8.1 mph - N/A Snow Light Snow
12:00 PM 35.6 °F 28.6 °F 33.8 °F 93% 29.49 in 8.0 mi East 9.2 mph - N/A Snow Light Snow
12:34 PM 35.6 °F 27.5 °F 33.8 °F 93% 29.48 in 15.0 mi East 11.5 mph - N/A   Overcast
1:00 PM 35.6 °F 28.6 °F 33.8 °F 93% 29.49 in 15.0 mi East 9.2 mph - N/A   Overcast
1:48 PM 35.6 °F 27.1 °F 33.8 °F 93% 29.50 in 15.0 mi East 12.7 mph - N/A   Overcast
2:00 PM 35 °F - 33 °F 92% 29.50 in 15 mi East 10.4 mph - -   Partly Cloudy
2:00 PM 35.6 °F 28.0 °F 33.8 °F 93% 29.50 in 15.0 mi East 10.4 mph - N/A   Overcast
3:00 PM 35.6 °F 27.5 °F 33.8 °F 93% 29.52 in 15.0 mi East 11.5 mph - N/A   Overcast
3:23 PM 35.6 °F 26.6 °F 33.8 °F 93% 29.52 in 15.0 mi ESE 13.8 mph - N/A   Mostly Cloudy
4:00 PM 35.6 °F 27.1 °F 33.8 °F 93% 29.54 in 15.0 mi East 12.7 mph 20.7 mph N/A   Overcast
4:19 PM 35.6 °F 28.0 °F 33.8 °F 93% 29.55 in 15.0 mi East 10.4 mph 18.4 mph N/A   Overcast
5:00 PM 35.6 °F 29.2 °F 33.8 °F 93% 29.56 in 15.0 mi East 8.1 mph 18.4 mph N/A   Overcast
6:00 PM 35.6 °F 28.0 °F 33.8 °F 93% 29.59 in 15.0 mi East 10.4 mph 17.3 mph N/A Rain Light Rain Showers
7:00 PM 35.6 °F 28.6 °F 33.8 °F 93% 29.63 in 15.0 mi ENE 9.2 mph - N/A   Overcast
8:00 PM 34 °F - 34 °F 99% 29.65 in 15 mi ENE 9.2 mph - -   Partly Cloudy
8:33 PM 33.8 °F 25.8 °F 33.8 °F 100% 29.66 in 15.0 mi East 10.4 mph - N/A   Overcast
9:00 PM 33.8 °F 27.0 °F 33.8 °F 100% 29.67 in 15.0 mi ENE 8.1 mph - N/A   Overcast
10:00 PM 32.0 °F 24.2 °F 32.0 °F 100% 29.68 in 15.0 mi NNE 9.2 mph - N/A   Overcast
11:00 PM 32.0 °F 24.2 °F 32.0 °F 100% 29.70 in 15.0 mi NNE 9.2 mph - N/A   Overcast
11:19 PM 32.0 °F 23.0 °F 32.0 °F 100% 29.70 in 12.0 mi NNE 11.5 mph - N/A Snow Light Snow Showers